GW6994 Weather Reports


time (UTC)temp
C
wind
direction
speed
KPH
gust
KPH
rain 1hr
cm
rain 24hr
cm
rain mn
cm
humidity
%
barometer
mb
20260901081333 23 284 0.0 0.0 0.00 0.00 0.00 71 1056.9
20260901080833 23 284 0.0 0.0 0.00 0.00 0.00 70 1057.0
20260901080328 24 284 0.0 0.0 0.00 0.00 0.00 70 1057.1
20260901075828 23 277 1.6 3.2 0.00 0.00 0.00 70 1056.9
20260901075323 23 297 0.0 0.0 0.00 0.00 0.00 71 1057.0
20260901074818 23 284 0.0 0.0 0.00 0.00 0.00 71 1057.1
20260901074312 23 284 0.0 0.0 0.00 0.00 0.00 71 1056.7
20260901073808 23 336 0.0 0.0 0.00 0.00 0.00 72 1056.8
20260901073304 23 322 0.0 0.0 0.00 0.00 0.00 72 1056.8
20260901072759 23 326 0.0 0.0 0.00 0.00 0.00 72 1056.7
20260901072259 23 293 0.0 0.0 0.00 0.00 0.00 70 1056.8
20260901071754 23 299 1.6 3.2 0.00 0.00 0.00 71 1056.8
20260901071253 23 291 0.0 1.6 0.00 0.00 0.00 70 1056.7
20260901070752 24 255 0.0 0.0 0.00 0.00 0.00 69 1056.6
20260901070248 24 269 0.0 0.0 0.00 0.00 0.00 69 1056.7
20260901065747 24 175 0.0 3.2 0.00 0.00 0.00 70 1056.9
20260901065242 23 322 0.0 0.0 0.00 0.00 0.00 71 1056.8
20260901064738 23 0 0.0 0.0 0.00 0.00 0.00 72 1056.9
20260901064234 23 0 0.0 0.0 0.00 0.00 0.00 72 1056.9
20260901063731 23 347 0.0 1.6 0.00 0.00 0.00 72 1056.9
20260901063227 24 37 0.0 0.0 0.00 0.00 0.00 71 1056.8
20260901062723 25 88 3.2 3.2 0.00 0.00 0.00 68 1056.9
20260901062219 25 297 0.0 0.0 0.00 0.00 0.00 65 1056.9
20260901061714 25 230 0.0 0.0 0.00 0.00 0.00 65 1057.0
20260901061214 25 255 0.0 0.0 0.00 0.00 0.00 65 1056.8
20260901060709 25 251 0.0 1.6 0.00 0.00 0.00 65 1056.8
20260901060204 25 235 0.0 0.0 0.00 0.00 0.00 65 1056.9
20260901055700 25 255 0.0 0.0 0.00 0.00 0.00 65 1056.8
20260901055156 25 269 0.0 0.0 0.00 0.00 0.00 65 1056.9
20260901054653 25 302 0.0 1.6 0.00 0.00 0.00 65 1056.7
20260901054149 25 268 0.0 1.6 0.00 0.00 0.00 65 1056.8
20260901053645 25 246 0.0 0.0 0.00 0.00 0.00 65 1056.8
20260901053141 25 242 0.0 1.6 0.00 0.00 0.00 65 1056.7
20260901052636 25 269 0.0 1.6 0.00 0.00 0.00 65 1056.6
20260901052131 25 255 0.0 0.0 0.00 0.00 0.00 65 1056.6
20260901051630 25 150 0.0 0.0 0.00 0.00 0.00 66 1056.6
20260901051129 25 150 0.0 0.0 0.00 0.00 0.00 66 1056.3
20260901050625 25 197 0.0 0.0 0.00 0.00 0.00 66 1056.6
20260901050120 25 269 0.0 1.6 0.00 0.00 0.00 65 1056.4
20260901045615 25 242 0.0 0.0 0.00 0.00 0.00 64 1056.2
20260901045115 26 230 0.0 0.0 0.00 0.00 0.00 63 1056.3
20260901044611 26 217 0.0 1.6 0.00 0.00 0.00 62 1056.4
20260901044107 26 232 1.6 1.6 0.00 0.00 0.00 62 1056.4
20260901043603 26 186 0.0 3.2 0.00 0.00 0.00 62 1056.3
20260901043058 26 166 1.6 3.2 0.00 0.00 0.00 62 1056.3
20260901042557 26 175 0.0 3.2 0.00 0.00 0.00 63 1056.6
20260901042053 26 215 1.6 1.6 0.00 0.00 0.00 63 1056.3
20260901041548 26 239 0.0 1.6 0.00 0.00 0.00 62 1056.3
20260901041048 26 196 1.6 3.2 0.00 0.00 0.00 61 1056.7
20260901040548 26 242 1.6 3.2 0.00 0.00 0.00 62 1056.2
20260901040042 26 204 0.0 3.2 0.00 0.00 0.00 62 1056.3
20260901035540 26 214 0.0 1.6 0.00 0.00 0.00 63 1056.4
20260901035039 26 224 0.0 3.2 0.00 0.00 0.00 62 1056.6
20260901034539 26 235 0.0 1.6 0.00 0.00 0.00 62 1056.6
20260901034034 26 208 1.6 3.2 0.00 0.00 0.00 62 1056.1
20260901033533 26 224 0.0 1.6 0.00 0.00 0.00 62 1056.2
20260901033033 26 205 0.0 1.6 0.00 0.00 0.00 63 1056.6
20260901032532 26 228 0.0 3.2 0.00 0.00 0.00 63 1056.4
20260901032027 26 195 0.0 1.6 0.00 0.00 0.00 62 1056.1
20260901031522 26 297 0.0 1.6 0.00 0.00 0.00 62 1056.2
20260901031018 26 217 0.0 0.0 0.00 0.00 0.00 63 1056.1
20260901030518 26 269 0.0 1.6 0.00 0.00 0.00 64 1056.1
20260901030018 26 255 1.6 3.2 0.00 0.00 0.00 62 1056.2
20260901025513 26 275 0.0 0.0 0.00 0.00 0.00 62 1056.2
20260901025012 26 217 0.0 0.0 0.00 0.00 0.00 63 1056.2
20260901024508 26 333 0.0 0.0 0.00 0.00 0.00 63 1056.1
20260901024006 26 242 0.0 0.0 0.00 0.00 0.00 64 1056.0
20260901023500 26 242 0.0 0.0 0.00 0.00 0.00 66 1055.9
20260901022955 26 125 0.0 0.0 0.00 0.00 0.00 66 1055.9
20260901022451 26 130 0.0 0.0 0.00 0.00 0.00 65 1055.8
20260901021951 26 130 0.0 0.0 0.00 0.00 0.00 65 1055.7
20260901021447 26 130 0.0 0.0 0.00 0.00 0.00 65 1055.8
20260901020942 26 117 0.0 0.0 0.00 0.00 0.00 64 1055.6
20260901020438 26 89 0.0 0.0 0.00 0.00 0.00 65 1055.6
20260901015936 26 89 0.0 0.0 0.00 0.00 0.00 64 1055.7
20260901015434 26 89 0.0 0.0 0.00 0.00 0.00 64 1055.5
20260901014932 27 89 0.0 0.0 0.00 0.00 0.00 63 1055.6
20260901014429 27 89 0.0 0.0 0.00 0.00 0.00 63 1055.6
20260901013924 27 89 0.0 0.0 0.00 0.00 0.00 61 1055.4
20260901013420 27 93 1.6 3.2 0.00 0.00 0.00 59 1055.4
20260901012916 28 230 0.0 0.0 0.00 0.00 0.00 59 1055.1
20260901012415 28 135 0.0 0.0 0.00 0.00 0.00 57 1055.2
20260901011911 28 135 0.0 0.0 0.00 0.00 0.00 56 1055.0
20260901011407 28 230 0.0 0.0 0.00 0.00 0.00 55 1055.0
20260901010905 29 89 0.0 0.0 0.00 0.00 0.00 55 1055.0
20260901010400 29 32 0.0 0.0 0.00 0.00 0.00 53 1055.1
20260901005859 30 32 0.0 0.0 0.00 0.00 0.00 53 1055.1
20260901005354 30 32 0.0 0.0 0.00 0.00 0.00 51 1055.1
20260901004850 31 32 0.0 0.0 0.00 0.00 0.00 49 1055.0
20260901004349 32 48 0.0 0.0 0.00 0.00 0.00 47 1055.0
20260901003849 33 154 0.0 0.0 0.00 0.00 0.00 45 1055.0
20260901003344 33 205 0.0 0.0 0.00 0.00 0.00 43 1055.1
20260901002843 34 161 1.6 3.2 0.00 0.00 0.00 42 1054.9
20260901002343 35 152 0.0 1.6 0.00 0.00 0.00 41 1054.8
20260901001837 35 147 0.0 3.2 0.00 0.00 0.00 40 1054.9
20260901001333 35 162 1.6 3.2 0.00 0.00 0.00 39 1054.8
20260901000828 35 157 0.0 3.2 0.00 0.00 0.00 39 1054.8
20260901000323 35 156 1.6 4.8 0.00 0.00 0.00 39 1054.9
20260831235822 35 173 0.0 4.8 0.00 0.00 0.00 38 1054.9
20260831235318 36 137 3.2 6.4 0.00 0.00 0.00 38 1054.8
20260831234813 36 157 6.4 9.7 0.00 0.00 0.00 38 1055.0
20260831234312 36 147 8.0 11.3 0.00 0.00 0.00 36 1054.9
20260831233808 36 141 0.0 8.0 0.00 0.00 0.00 37 1054.8
20260831233303 36 177 4.8 4.8 0.00 0.00 0.00 37 1054.8
20260831232758 36 143 6.4 6.4 0.00 0.00 0.00 37 1054.7
20260831232255 36 148 11.3 14.5 0.00 0.00 0.00 36 1054.9
20260831231750 37 148 9.7 11.3 0.00 0.00 0.00 36 1054.9
20260831231248 37 177 4.8 9.7 0.00 0.00 0.00 36 1054.6
20260831230747 37 194 6.4 8.0 0.00 0.00 0.00 36 1054.8
20260831230242 37 171 4.8 8.0 0.00 0.00 0.00 35 1055.0
20260831225741 37 172 4.8 6.4 0.00 0.00 0.00 34 1054.8
20260831225237 38 166 4.8 6.4 0.00 0.00 0.00 34 1054.9
20260831224732 37 201 3.2 6.4 0.00 0.00 0.00 34 1054.7
20260831224228 37 171 6.4 6.4 0.00 0.00 0.00 34 1054.7
20260831223723 37 153 4.8 11.3 0.00 0.00 0.00 34 1054.8
20260831223219 37 158 8.0 11.3 0.00 0.00 0.00 34 1054.9
20260831222715 37 161 8.0 9.7 0.00 0.00 0.00 33 1054.9
20260831222210 38 168 8.0 11.3 0.00 0.00 0.00 33 1054.9
20260831221706 37 197 4.8 9.7 0.00 0.00 0.00 33 1055.0
20260831221201 37 196 8.0 11.3 0.00 0.00 0.00 33 1055.1
20260831220655 37 162 12.9 12.9 0.00 0.00 0.00 33 1054.8
20260831220151 37 187 4.8 8.0 0.00 0.00 0.00 34 1054.9
20260831215646 37 201 4.8 11.3 0.00 0.00 0.00 34 1054.8
20260831215141 37 154 4.8 12.9 0.00 0.00 0.00 35 1055.0
20260831214639 37 184 8.0 17.7 0.00 0.00 0.00 35 1055.1
20260831214135 38 182 4.8 9.7 0.00 0.00 0.00 34 1055.1
20260831213631 37 143 9.7 17.7 0.00 0.00 0.00 33 1054.8
20260831213126 38 138 19.3 20.9 0.00 0.00 0.00 33 1055.0
20260831212622 38 212 8.0 9.7 0.00 0.00 0.00 34 1055.1
20260831212119 37 48 1.6 9.7 0.00 0.00 0.00 33 1055.0
20260831211618 37 161 9.7 16.1 0.00 0.00 0.00 33 1055.2
20260831211117 38 148 11.3 14.5 0.00 0.00 0.00 33 1055.2
20260831210612 37 215 8.0 17.7 0.00 0.00 0.00 33 1055.2
20260831210108 37 171 14.5 20.9 0.00 0.00 0.00 33 1055.2
20260831205608 38 143 3.2 9.7 0.00 0.00 0.00 31 1055.3
20260831205104 38 193 3.2 11.3 0.00 0.00 0.00 32 1055.3
20260831204559 37 225 11.3 11.3 0.00 0.00 0.00 32 1055.3
20260831204057 38 222 9.7 9.7 0.00 0.00 0.00 32 1055.4
20260831203551 38 240 9.7 12.9 0.00 0.00 0.00 32 1055.4
20260831203051 38 232 6.4 9.7 0.00 0.00 0.00 31 1055.4
20260831202550 38 199 6.4 8.0 0.00 0.00 0.00 32 1055.5
20260831202050 38 177 11.3 17.7 0.00 0.00 0.00 32 1055.5
20260831201549 38 195 1.6 9.7 0.00 0.00 0.00 31 1055.6
20260831201044 38 177 3.2 11.3 0.00 0.00 0.00 31 1055.7
20260831200540 38 224 6.4 12.9 0.00 0.00 0.00 32 1055.5
20260831200040 37 166 4.8 17.7 0.00 0.00 0.00 32 1055.8
20260831195536 37 165 9.7 20.9 0.00 0.00 0.00 33 1055.7
20260831195031 38 219 4.8 9.7 0.00 0.00 0.00 32 1055.7
20260831194526 37 199 12.9 16.1 0.00 0.00 0.00 33 1055.8
20260831194026 37 193 14.5 16.1 0.00 0.00 0.00 32 1055.9
20260831193521 37 187 14.5 16.1 0.00 0.00 0.00 33 1055.9
20260831193016 37 221 6.4 9.7 0.00 0.00 0.00 33 1055.8
20260831192511 37 262 6.4 11.3 0.00 0.00 0.00 32 1055.9
20260831192007 37 214 8.0 17.7 0.00 0.00 0.00 33 1056.2
20260831191503 38 193 6.4 11.3 0.00 0.00 0.00 33 1056.2
20260831190958 37 256 9.7 14.5 0.00 0.00 0.00 33 1055.9
20260831190454 37 207 11.3 16.1 0.00 0.00 0.00 33 1056.2
20260831185952 37 179 3.2 6.4 0.00 0.00 0.00 33 1056.2
20260831185448 37 283 6.4 11.3 0.00 0.00 0.00 33 1056.0
20260831184948 37 222 8.0 17.7 0.00 0.00 0.00 34 1056.3
20260831184443 37 174 9.7 16.1 0.00 0.00 0.00 33 1056.4
20260831183938 37 202 6.4 16.1 0.00 0.00 0.00 33 1056.7
20260831183437 37 211 6.4 24.1 0.00 0.00 0.00 33 1056.7
20260831182937 37 230 3.2 9.7 0.00 0.00 0.00 35 1056.6
20260831182433 37 268 4.8 11.3 0.00 0.00 0.00 34 1056.6
20260831181928 37 230 6.4 12.9 0.00 0.00 0.00 34 1056.9
20260831181423 38 273 8.0 14.5 0.00 0.00 0.00 34 1056.8
20260831180917 37 262 6.4 12.9 0.00 0.00 0.00 35 1056.9
20260831180412 37 257 8.0 8.0 0.00 0.00 0.00 36 1057.0
20260831175911 37 246 4.8 9.7 0.00 0.00 0.00 36 1057.1
20260831175408 36 244 9.7 12.9 0.00 0.00 0.00 36 1057.0
20260831174903 36 227 6.4 17.7 0.00 0.00 0.00 38 1057.0
20260831174358 36 203 11.3 20.9 0.00 0.00 0.00 39 1057.1
20260831173858 36 163 1.6 8.0 0.00 0.00 0.00 41 1057.1
20260831173357 36 255 0.0 12.9 0.00 0.00 0.00 40 1057.3
20260831172853 36 242 8.0 17.7 0.00 0.00 0.00 40 1057.5
20260831172348 36 225 11.3 20.9 0.00 0.00 0.00 40 1057.5
20260831171848 36 237 9.7 14.5 0.00 0.00 0.00 40 1057.6
20260831171344 35 244 4.8 17.7 0.00 0.00 0.00 41 1057.6
20260831170841 35 234 9.7 16.1 0.00 0.00 0.00 41 1057.8
20260831170337 35 246 3.2 16.1 0.00 0.00 0.00 42 1057.7
20260831165833 35 266 9.7 16.1 0.00 0.00 0.00 40 1057.6
20260831165329 35 214 9.7 14.5 0.00 0.00 0.00 42 1057.8
20260831164825 35 254 8.0 14.5 0.00 0.00 0.00 42 1057.7
20260831164321 35 272 6.4 17.7 0.00 0.00 0.00 43 1057.7
20260831163817 35 253 11.3 19.3 0.00 0.00 0.00 42 1057.8
20260831163312 35 244 6.4 11.3 0.00 0.00 0.00 42 1057.9
20260831162810 35 245 8.0 12.9 0.00 0.00 0.00 44 1057.9
20260831162306 34 261 9.7 16.1 0.00 0.00 0.00 44 1057.8
20260831161804 35 275 11.3 19.3 0.00 0.00 0.00 44 1057.9
20260831161301 33 249 8.0 14.5 0.00 0.00 0.00 46 1057.8
20260831160756 33 218 3.2 11.3 0.00 0.00 0.00 46 1057.9
20260831160251 33 247 12.9 16.1 0.00 0.00 0.00 45 1057.9
20260831155751 33 248 3.2 16.1 0.00 0.00 0.00 47 1057.9
20260831155246 33 254 9.7 20.9 0.00 0.00 0.00 46 1057.8
20260831154741 33 214 9.7 20.9 0.00 0.00 0.00 47 1057.9
20260831154238 33 209 9.7 14.5 0.00 0.00 0.00 47 1058.1
20260831153736 33 234 12.9 19.3 0.00 0.00 0.00 47 1057.9
20260831153232 32 217 4.8 17.7 0.00 0.00 0.00 49 1057.7
20260831152728 32 241 6.4 16.1 0.00 0.00 0.00 49 1057.9
20260831152224 32 216 9.7 16.1 0.00 0.00 0.00 49 1057.8
20260831151723 32 222 9.7 17.7 0.00 0.00 0.00 49 1057.9
20260831151223 32 234 6.4 16.1 0.00 0.00 0.00 51 1057.9
20260831150718 31 197 8.0 16.1 0.00 0.00 0.00 50 1058.0
20260831150214 31 238 9.7 19.3 0.00 0.00 0.00 52 1057.8
20260831145713 31 234 9.7 16.1 0.00 0.00 0.00 52 1057.9
20260831145209 31 184 6.4 17.7 0.00 0.00 0.00 53 1057.7
20260831144705 31 235 6.4 12.9 0.00 0.00 0.00 53 1057.8
20260831144201 31 209 9.7 14.5 0.00 0.00 0.00 52 1057.7
20260831143700 30 235 9.7 16.1 0.00 0.00 0.00 54 1058.0
20260831143155 30 218 4.8 14.5 0.00 0.00 0.00 54 1057.9
20260831142652 30 197 6.4 14.5 0.00 0.00 0.00 55 1057.8
20260831142147 30 221 8.0 16.1 0.00 0.00 0.00 55 1057.8
20260831141646 30 209 4.8 6.4 0.00 0.00 0.00 57 1057.9
20260831141141 29 202 8.0 12.9 0.00 0.00 0.00 57 1057.8
20260831140640 28 238 4.8 11.3 0.00 0.00 0.00 58 1057.8
20260831140135 28 203 6.4 8.0 0.00 0.00 0.00 59 1057.8
20260831135633 28 211 3.2 9.7 0.00 0.00 0.00 59 1057.9
20260831135129 27 214 3.2 9.7 0.00 0.00 0.00 60 1057.7
20260831134625 27 188 3.2 8.0 0.00 0.00 0.00 60 1058.1
20260831134121 27 179 4.8 8.0 0.00 0.00 0.00 61 1057.7
20260831133619 26 197 3.2 8.0 0.00 0.00 0.00 63 1057.8
20260831133114 26 175 3.2 6.4 0.00 0.00 0.00 63 1057.7
20260831132610 26 204 3.2 6.4 0.00 0.00 0.00 64 1057.5
20260831132109 26 209 4.8 4.8 0.00 0.00 0.00 63 1057.7
20260831131603 26 165 1.6 4.8 0.00 0.00 0.00 65 1057.7
20260831131100 25 211 3.2 4.8 0.00 0.00 0.00 66 1057.7
20260831130555 25 202 0.0 3.2 0.00 0.00 0.00 67 1057.8
20260831130051 25 205 0.0 3.2 0.00 0.00 0.00 68 1057.6
20260831125549 24 203 3.2 3.2 0.00 0.00 0.00 69 1057.6
20260831125045 24 224 0.0 3.2 0.00 0.00 0.00 70 1057.6
20260831124542 23 218 0.0 3.2 0.00 0.00 0.00 71 1057.4
20260831124037 23 232 0.0 1.6 0.00 0.00 0.00 73 1057.1
20260831123536 22 333 0.0 1.6 0.00 0.00 0.00 76 1057.2
20260831123031 21 44 0.0 1.6 0.00 0.00 0.00 77 1057.3
20260831122530 21 0 0.0 3.2 0.00 0.00 0.00 78 1056.9
20260831122027 21 53 0.0 3.2 0.00 0.00 0.00 77 1057.1
20260831121526 21 334 0.0 1.6 0.00 0.00 0.00 76 1057.0
20260831121023 21 295 1.6 3.2 0.00 0.00 0.00 77 1056.9
20260831120522 20 334 0.0 1.6 0.00 0.00 0.00 78 1056.8
20260831120018 20 338 0.0 1.6 0.00 0.00 0.00 79 1056.6
20260831115514 21 348 0.0 1.6 0.00 0.00 0.00 77 1056.3
20260831115009 21 18 0.0 0.0 0.00 0.00 0.00 77 1056.4
20260831114507 21 62 1.6 3.2 0.00 0.00 0.00 76 1056.4
20260831114002 21 321 0.0 1.6 0.00 0.00 0.00 76 1056.2
20260831113502 21 309 0.0 1.6 0.00 0.00 0.00 77 1056.2
20260831112958 20 6 0.0 0.0 0.00 0.00 0.00 78 1056.1
20260831112457 20 89 0.0 0.0 0.00 0.00 0.00 78 1056.2
20260831111952 20 73 0.0 1.6 0.00 0.00 0.00 78 1056.0
20260831111448 20 170 0.0 1.6 0.00 0.00 0.00 78 1056.0
20260831110943 20 13 0.0 1.6 0.00 0.00 0.00 80 1056.1
20260831110438 20 49 0.0 1.6 0.00 0.00 0.00 79 1056.0
20260831105937 21 37 0.0 3.2 0.00 0.00 0.00 78 1056.0
20260831105433 21 11 0.0 1.6 0.00 0.00 0.00 76 1055.9
20260831104928 21 329 0.0 0.0 0.00 0.00 0.00 75 1055.9
20260831104424 21 55 0.0 1.6 0.00 0.00 0.00 76 1056.0
20260831103920 21 45 0.0 1.6 0.00 0.00 0.00 77 1056.1
20260831103420 21 44 0.0 1.6 0.00 0.00 0.00 76 1055.9
20260831102915 21 323 0.0 3.2 0.00 0.00 0.00 76 1055.9
20260831102415 21 42 1.6 3.2 0.00 0.00 0.00 76 1055.9
20260831101911 21 16 3.2 3.2 0.00 0.00 0.00 74 1055.8
20260831101406 22 46 3.2 3.2 0.00 0.00 0.00 73 1055.8
20260831100902 22 141 0.0 1.6 0.00 0.00 0.00 72 1055.9
20260831100358 22 117 0.0 0.0 0.00 0.00 0.00 71 1056.0
20260831095858 22 154 0.0 3.2 0.00 0.00 0.00 71 1055.8
20260831095356 22 165 3.2 4.8 0.00 0.00 0.00 71 1055.8
20260831094852 22 160 3.2 3.2 0.00 0.00 0.00 71 1055.8
20260831094348 22 155 1.6 1.6 0.00 0.00 0.00 70 1055.8
20260831093843 22 150 1.6 3.2 0.00 0.00 0.00 71 1055.8
20260831093338 22 148 1.6 3.2 0.00 0.00 0.00 71 1056.0
20260831092835 22 157 0.0 3.2 0.00 0.00 0.00 70 1055.8
20260831092331 23 148 3.2 3.2 0.00 0.00 0.00 70 1056.1
20260831091826 23 168 0.0 1.6 0.00 0.00 0.00 69 1056.1
20260831091321 23 147 1.6 3.2 0.00 0.00 0.00 69 1055.8
20260831090816 23 107 3.2 3.2 0.00 0.00 0.00 69 1055.8
20260831090312 23 129 0.0 3.2 0.00 0.00 0.00 69 1055.7
20260831085809 23 145 1.6 1.6 0.00 0.00 0.00 69 1055.8
20260831085306 23 158 0.0 3.2 0.00 0.00 0.00 69 1055.9
20260831084803 23 139 0.0 1.6 0.00 0.00 0.00 68 1055.9
20260831084259 23 150 0.0 3.2 0.00 0.00 0.00 68 1055.8
20260831083755 23 140 1.6 1.6 0.00 0.00 0.00 69 1055.7
20260831083251 23 140 0.0 0.0 0.00 0.00 0.00 69 1055.7
20260831082749 23 119 0.0 0.0 0.00 0.00 0.00 69 1055.8
20260831082244 23 156 0.0 1.6 0.00 0.00 0.00 69 1055.9
20260831081740 23 124 0.0 0.0 0.00 0.00 0.00 68 1055.7